TimeAKDT,TemperatureF,Dew PointF,Humidity,Sea Level PressureIn,VisibilityMPH,Wind Direction,Wind SpeedMPH,Gust SpeedMPH,PrecipitationIn,Events,Conditions,WindDirDegrees,DateUTC
12:53 AM,15.1,6.1,68,30.22,10.0,Calm,Calm,-,N/A,,Scattered Clouds,0,2011-11-03 08:53:00
1:53 AM,14.0,6.1,71,30.24,10.0,Calm,Calm,-,N/A,,Scattered Clouds,0,2011-11-03 09:53:00
2:53 AM,16.0,5.0,62,30.23,10.0,NNE,3.5,-,N/A,,Mostly Cloudy,30,2011-11-03 10:53:00
3:53 AM,17.1,6.1,62,30.18,10.0,East,4.6,-,N/A,,Mostly Cloudy,80,2011-11-03 11:53:00
4:53 AM,17.1,7.0,65,30.17,10.0,Calm,Calm,-,N/A,,Mostly Cloudy,0,2011-11-03 12:53:00
5:53 AM,18.0,8.1,65,30.13,10.0,East,3.5,-,N/A,,Overcast,80,2011-11-03 13:53:00
6:53 AM,19.9,8.1,60,30.08,10.0,North,3.5,-,N/A,,Overcast,350,2011-11-03 14:53:00
7:53 AM,21.9,9.0,58,30.04,10.0,Calm,Calm,-,N/A,,Mostly Cloudy,0,2011-11-03 15:53:00
8:53 AM,21.9,10.0,60,30.01,10.0,Calm,Calm,-,N/A,,Clear,0,2011-11-03 16:53:00
9:53 AM,23.0,12.0,63,29.96,10.0,Calm,Calm,-,N/A,,Overcast,0,2011-11-03 17:53:00
10:53 AM,23.0,14.0,68,29.93,10.0,Calm,Calm,-,N/A,,Overcast,0,2011-11-03 18:53:00
11:53 AM,23.0,10.0,58,29.89,10.0,North,4.6,-,N/A,,Overcast,10,2011-11-03 19:53:00
12:53 PM,24.1,10.0,55,29.86,5.0,North,3.5,-,N/A,,Overcast,350,2011-11-03 20:53:00
1:08 PM,24.8,12.2,59,29.85,3.0,North,5.8,-,0.00,Snow,Light Snow,350,2011-11-03 21:08:00
1:44 PM,23.0,17.6,80,29.80,2.0,North,9.2,-,0.00,Snow,Light Snow,10,2011-11-03 21:44:00
1:53 PM,23.0,18.0,81,29.80,2.0,NNW,9.2,-,0.00,Snow,Light Snow,340,2011-11-03 21:53:00
2:03 PM,23.0,17.6,80,29.79,1.0,NNW,8.1,-,0.00,Snow,Light Snow,340,2011-11-03 22:03:00
2:30 PM,24.8,19.4,80,29.75,3.0,North,9.2,-,0.00,Snow,Light Snow,350,2011-11-03 22:30:00
2:53 PM,25.0,21.0,85,29.71,3.0,NNW,8.1,-,0.00,Snow,Light Snow,340,2011-11-03 22:53:00
3:53 PM,27.0,21.9,81,29.60,10.0,WNW,6.9,-,0.00,,Overcast,290,2011-11-03 23:53:00
4:53 PM,32.0,25.0,75,29.59,8.0,WNW,12.7,-,N/A,,Overcast,290,2011-11-04 00:53:00
5:53 PM,28.0,24.1,85,29.57,7.0,West,3.5,-,N/A,,Overcast,260,2011-11-04 01:53:00
6:53 PM,26.1,21.9,84,29.51,10.0,NW,6.9,-,N/A,,Overcast,320,2011-11-04 02:53:00
7:53 PM,26.1,21.9,84,29.45,10.0,NW,5.8,-,N/A,,Overcast,310,2011-11-04 03:53:00
8:53 PM,30.9,26.1,82,29.39,10.0,West,9.2,-,N/A,,Overcast,280,2011-11-04 04:53:00
9:53 PM,30.0,23.0,75,29.35,10.0,NNW,9.2,-,N/A,,Overcast,330,2011-11-04 05:53:00
10:53 PM,28.0,21.9,78,29.33,10.0,NNW,6.9,-,N/A,,Overcast,330,2011-11-04 06:53:00
11:53 PM,25.0,19.9,81,29.33,10.0,NW,9.2,-,N/A,,Overcast,310,2011-11-04 07:53:00